Assiniboia, Saskatchewan

11:25 PM CST on November 18, 2017 (GMT -0600)
Assiniboia

Weather History for CWJI - October, 2013

Change the Weather History Date:

Thursday, October 3, 2013

  Actual Average (CYMJ) Record (CYMJ)
Temperature  
Mean Temperature 37 °F -  
Max Temperature 45 °F 57 °F 78 °F (2010)
Min Temperature 29 °F 35 °F 17 °F (1999)
Degree Days  
Heating Degree Days 28    
Moisture  
Dew Point 30 °F    
Average Humidity 74    
Maximum Humidity 95    
Minimum Humidity 43    
Precipitation  
Precipitation 0.00 in - - ()
Sea Level Pressure  
Sea Level Pressure 30.27 in    
Wind  
Wind Speed 8 mph ()    
Max Wind Speed 16 mph    
Max Gust Speed 22 mph    
Averages and records for this station are not official NWS values.
T = Trace of Precipitation, MM = Missing Value Source: Averaged Metar Reports

Daily Weather History Graph

Daily Weather History Graph

Search for Another Location

Airport or City:

Trip Planner

Search our weather history database for the weather conditions in past years. The results will help you decide how hot, cold, wet, or windy it might be!

Date:

Astronomy

Oct. 03, 2013 Rise Set
Actual Time 7:07 AM CST 6:37 PM CST
Civil Twilight 6:35 AM CST 7:09 PM CST
Nautical Twilight 5:57 AM CST 7:46 PM CST
Astronomical Twilight 5:19 AM CST 8:24 PM CST
Moon 5:38 AM CST (10/3) 5:49 PM CST (10/3)
Length of Visible Light 12h 34m
Length of Day
11h 30m
Waning Crescent, 2% of the Moon is Illuminated
Oct 3
Waning Crescent
Oct 4
New
Oct 11
First Quarter
Oct 18
Full
Oct 26
Last Quarter

Hourly Weather History & Observations

Time (CST) Temp. Windchill Dew Point Humidity Pressure Visibility Wind Dir Wind Speed Gust Speed Precip Events Conditions
12:00 AM 31 °F - 28 °F 83% 30.13 in - West 6.9 mph - -  
12:00 AM 30.6 °F 23.8 °F 27.9 °F 90% 30.13 in - West 6.9 mph - N/A   Unknown
1:00 AM 31.1 °F 25.4 °F 29.5 °F 94% 30.13 in - West 5.8 mph - N/A   Unknown
2:00 AM 30.6 °F 25.8 °F 28.8 °F 93% 30.14 in - West 4.6 mph - N/A   Unknown
3:00 AM 30.6 °F 24.7 °F 28.8 °F 93% 30.15 in - West 5.8 mph - N/A   Unknown
4:00 AM 33.8 °F 27.0 °F 31.6 °F 92% 30.15 in - NW 8.1 mph - N/A   Unknown
5:00 AM 36.5 °F 29.7 °F 34.7 °F 93% 30.17 in - NNW 9.2 mph - N/A   Unknown
6:00 AM 35 °F - 34 °F 92% 30.21 in - North 10.4 mph - -  
6:00 AM 35.2 °F 27.6 °F 33.6 °F 94% 30.21 in - North 10.4 mph - N/A   Unknown
7:00 AM 35.8 °F 28.8 °F 33.6 °F 92% 30.23 in - North 9.2 mph - N/A   Unknown
8:00 AM 35.8 °F 28.8 °F 34.5 °F 95% 30.25 in - North 9.2 mph - N/A   Unknown
9:00 AM 36.3 °F 28.0 °F 33.6 °F 90% 30.27 in - NNE 12.7 mph - N/A   Unknown
10:00 AM 37.4 °F 29.3 °F 33.1 °F 84% 30.28 in - NNE 12.7 mph - N/A   Unknown
11:00 AM 40.6 °F 32.7 °F 28.6 °F 62% 30.30 in - NNE 15.0 mph - N/A   Unknown
12:00 PM 44 °F - 29 °F 43% 30.30 in - NNE 15.0 mph - -  
12:00 PM 43.5 °F 36.4 °F 28.8 °F 56% 30.30 in - NNE 15.0 mph 21.9 mph N/A   Unknown
1:00 PM 45.0 °F 37.9 °F 29.1 °F 54% 30.30 in - NNE 16.1 mph - N/A   Unknown
2:00 PM 43.7 °F 36.6 °F 27.5 °F 53% 30.30 in - North 15.0 mph - N/A   Unknown
3:00 PM 41.9 °F 34.6 °F 27.1 °F 56% 30.31 in - North 13.8 mph - N/A   Unknown
4:00 PM 41.7 °F 35.2 °F 27.1 °F 56% 30.33 in - North 11.5 mph - N/A   Unknown
5:00 PM 41.5 °F 35.0 °F 27.0 °F 56% 30.35 in - NNE 11.5 mph - N/A   Unknown
6:00 PM 41 °F - 26 °F 43% 30.37 in - North 8.1 mph - -  
6:00 PM 40.8 °F 35.6 °F 26.1 °F 56% 30.37 in - North 8.1 mph - N/A   Unknown
7:00 PM 40.1 °F 35.3 °F 27.3 °F 60% 30.38 in - NNE 6.9 mph - N/A   Unknown
8:00 PM 39.2 °F 35.0 °F 27.1 °F 62% 30.40 in - NNE 5.8 mph - N/A   Unknown
9:00 PM 38.1 °F 34.6 °F 28.6 °F 69% 30.42 in - NNW 4.6 mph - N/A   Unknown
11:00 PM 35.6 °F 30.7 °F 28.2 °F 75% 30.43 in - NNE 5.8 mph - N/A   Unknown